Overview Statistics Trail Chart Weather Telemetry Raw packets
 

This is the latest recevied weather packets stored in our database for station/object 4S6DRJ-13. If no packets are shown the sender has not sent any weather packets the latest 10 day(s).

<< 50 51 52 53 54 55 56 >>
Time Temp. Humidity Pressure Rain* Wind** Luminosity Snow
1788373676 27.78° C 85% 1010.8 hPa 0 mm 0.89 m/s, 216° 0 W/m² -
1788373615 27.78° C 85% 1010.6 hPa 0 mm 0.89 m/s, 233° 0 W/m² -
1788373555 27.78° C 85% 1010.8 hPa 0 mm 0.45 m/s, 151° 0 W/m² -
1788373493 27.78° C 85% 1010.8 hPa 0 mm 1.79 m/s, 251° 0 W/m² -
1788373432 27.78° C 85% 1010.7 hPa 0 mm 0.89 m/s, 320° 0 W/m² -
1788373371 27.78° C 85% 1010.7 hPa 0 mm 0.45 m/s, 224° 0 W/m² -
1788373310 27.78° C 85% 1011 hPa 0 mm 0.45 m/s, 235° 0 W/m² -
1788373250 27.78° C 85% 1010.9 hPa 0 mm 0.89 m/s, 203° 0 W/m² -
1788373189 27.78° C 85% 1010.9 hPa 0 mm 0 m/s 0 W/m² -
1788373128 27.78° C 85% 1011 hPa 0 mm 0.45 m/s, 191° 0 W/m² -
1788373067 27.78° C 85% 1010.9 hPa 0 mm 0.45 m/s, 209° 0 W/m² -
1788373006 27.78° C 85% 1011.1 hPa 0 mm 0.45 m/s, 252° 0 W/m² -
1788372945 27.78° C 85% 1010.9 hPa 0 mm 0.89 m/s, 257° 0 W/m² -
1788372884 27.78° C 85% 1010.9 hPa 0 mm 0 m/s 0 W/m² -
1788372823 27.78° C 85% 1011.2 hPa 0 mm 0.89 m/s, 247° 0 W/m² -
1788372762 27.78° C 85% 1011 hPa 0 mm 1.34 m/s, 220° 0 W/m² -
1788372702 27.78° C 85% 1011.2 hPa 0 mm 0.45 m/s, 241° 0 W/m² -
1788372640 27.78° C 85% 1011.1 hPa 0 mm 0.89 m/s, 212° 0 W/m² -
1788372579 27.78° C 85% 1011.1 hPa 0 mm 0.45 m/s, 200° 0 W/m² -
1788372518 27.78° C 85% 1011.1 hPa 0 mm 0.89 m/s, 240° 0 W/m² -
1788372457 27.78° C 85% 1011.1 hPa 0 mm 0.89 m/s, 192° 0 W/m² -
1788372396 27.78° C 85% 1011.1 hPa 0 mm 1.79 m/s, 237° 0 W/m² -
1788372335 27.78° C 85% 1011.1 hPa 0 mm 0.89 m/s, 235° 0 W/m² -
1788372274 27.78° C 85% 1011.2 hPa 0 mm 1.34 m/s, 268° 0 W/m² -
1788372213 27.78° C 85% 1011.1 hPa 0 mm 0.45 m/s, 258° 0 W/m² -

* Rain latest hour (hover to see other rain measurements)
** Current wind speed in m/s (hover to see current wind gust speed)